SCP
0 0 0 0 0 0 0 0 0 0 -0 0 0 0 0 0 0 0 0 0 0 0 0 0 0 0 0 0 0 0 0 0 0 0 0 0 0 0 0 0 0 0 0 0
0 0 0 0 0 0 0 0 0 0 0 0 0 0 -0 0 0 0 0 0 0 0 0 0 0 0 0 0 0 0 0 0 0 0 0 0 0 0 -0 0 -0 0 0 0
0 0 0 0 0 0 0 0 0 0 0 0 0 0 -0 0 0 0 0 0 0 0 0 0 0 0 0 0 0 0 0 0 0 0 -0 0 0 -0 0 0 -0 0 0 1
0 0 0 0 0 0 0 0 0 0 0 0 0 0 0 0 0 0 0 0 0 0 0 0 0 0 0 0 0 0 0 0 -0 -0 -0 -0 -0 -0 -0 -0 0 0 0 1
0 0 0 0 0 0 0 0 0 0 0 0 0 0 1 1 1 1 0 0 0 0 0 0 0 0 0 0 0 0 0 -0 -0 -0 0 -0 -0 -0 -0 -0 0 0 1 0
0 0 0 0 0 0 0 0 0 0 0 0 0 0 0 0 0 0 0 0 0 0 0 0 0 0 0 0 0 0 0 -0 0 0 0 0 0 -0 -0 -0 0 0 0 0
0 0 0 0 0 0 0 0 0 0 0 0 0 0 0 0 0 0 0 1 1 0 0 0 0 0 0 0 0 0 0 0 1 0 0 0 -0 0 -0 -0 0 0 0 0
0 0 0 0 0 0 0 0 0 0 0 0 0 0 0 0 0 0 0 0 1 3 2 1 0 0 0 0 0 0 0 0 0 0 0 -0 0 0 -0 0 0 0 0 0
0 0 0 0 0 0 0 0 0 0 0 0 0 0 0 0 0 0 0 0 0 0 2 2 1 0 0 0 0 0 0 0 0 -0 -0 0 0 0 0 0 1 0 0 0
0 0 0 0 0 0 0 0 0 0 0 0 0 0 0 0 0 0 0 0 0 0 1 1 1 1 1 0 0 0 1 0 0 1 1 1 1 1 1 1 1 1 0 0
0 0 0 0 0 0 0 0 0 0 0 0 0 0 0 0 0 0 0 0 0 0 0 1 1 1 1 1 1 1 1 1 1 1 1 1 1 1 1 1 1 0 0 0
0 0 0 0 0 0 0 0 0 0 0 0 0 0 0 0 0 0 0 0 0 0 0 1 1 1 1 1 1 1 1 1 1 1 2 1 0 0 0 1 0 0 0 0
0 0 0 0 0 0 0 0 0 0 0 0 0 0 0 0 0 0 0 0 0 0 0 0 0 0 0 2 2 2 2 2 2 2 1 1 1 1 0 0 0 0 0 0
0 0 0 0 0 0 0 0 0 0 0 0 0 0 0 0 0 0 0 0 0 0 0 0 0 0 0 2 3 3 2 2 2 2 1 1 1 1 1 1 0 0 0 0
0 0 0 0 0 0 0 0 0 0 0 0 0 0 0 0 0 0 0 0 0 0 0 0 0 0 0 3 4 3 2 2 2 2 1 2 2 2 2 1 0 0 0 0
0 0 0 0 0 0 0 0 0 0 -0 -0 0 0 0 0 0 0 0 0 0 0 0 0 0 0 0 1 2 3 2 1 1 1 1 1 2 2 2 2 0 0 0 0
0 0 0 0 0 0 0 0 0 0 -0 -0 -0 -0 0 0 0 0 0 0 0 0 0 0 0 0 0 0 0 2 2 1 1 2 1 1 0 1 2 2 0 0 0 0
0 0 0 0 0 0 0 0 0 0 0 0 -0 0 0 0 0 0 0 0 0 0 0 0 0 0 0 0 0 0 2 2 1 2 2 2 2 2 2 1 0 0 0 0
0 0 0 0 0 0 0 0 0 0 0 0 0 0 0 0 0 0 0 0 0 0 0 0 0 0 0 0 0 0 0 1 1 1 1 1 1 1 1 0 0 0 0 0
0 0 0 0 0 0 0 0 0 0 0 0 0 0 0 0 0 0 0 -0 0 0 0 0 0 0 0 0 0 0 0 0 0 0 1 1 1 1 0 0 0 0 0 0
0 0 0 0 0 0 0 0 0 0 0 0 0 0 0 0 0 0 0 0 0 0 0 0 0 0 0 0 0 0 0 0 0 0 1 0 1 0 0 0 0 0 0 0
-0 0 0 0 0 0 0 0 0 0 0 0 0 0 0 0 0 -0 -0 0 0 0 0 0 0 0 0 0 0 0 0 0 0 0 0 0 1 0 0 0 0 0 0 0
-0 -0 0 0 0 0 -0 0 0 0 0 0 0 0 0 0 0 0 0 0 0 0 0 0 0 0 0 0 0 0 0 0 0 0 0 0 0 1 0 0 0 0 0 0
-0 -0 -0 -0 -0 -0 0 0 -0 -0 -0 -0 0 0 0 0 0 0 0 0 0 0 0 0 0 0 0 0 0 0 0 0 0 0 0 0 0 0 0 0 0 0 0 0
0 0 -0 -0 -0 -0 -0 -0 -0 -0 -0 -0 -0 -0 -0 -0 -0 0 0 0 0 0 0 0 0 0 0 0 0 0 0 0 0 0 0 0 0 0 0 0 0 0 0 0
0 0 0 -0 -0 -0 -0 -0 -0 -0 -0 -0 -0 -0 -0 -0 -0 -0 -0 0 0 0 0 0 0 0 0 0 0 0 0 0 0 0 0 0 0 0 0 0 0 0 0 0
0 0 0 0 0 0 0 -0 -0 -0 -0 -0 -0 -0 -0 -0 -0 -0 0 0 0 0 0 0 0 0 0 0 0 0 0 0 0 0 0 0 0 0 0 0 0 0 0 0
Wind_Speed_500mb
12 19 7 9 10 7 10 9 11 11 15 22 19 15 19 26 13 28 34 40 47 47 51 56 62 66 68 67 62 61 60 58 55 45 48 43 40 36 31 31 29 28 26 23
9 13 14 10 15 15 10 4 11 10 13 11 33 28 26 32 8 29 41 42 39 47 55 59 59 58 60 62 56 54 54 49 44 46 47 43 40 36 34 28 26 24 21 16
9 7 10 7 9 4 1 13 6 8 10 24 16 22 20 18 17 27 36 44 53 53 55 53 52 54 54 52 51 51 49 45 45 45 43 42 39 37 30 26 22 20 15 14
7 9 8 9 11 9 22 17 17 15 22 24 28 50 27 10 5 13 13 27 41 51 62 56 51 54 56 49 46 44 45 44 43 45 43 41 38 34 28 25 21 18 16 16
6 6 7 2 11 10 9 3 23 25 30 45 38 11 10 16 10 16 23 18 19 35 39 41 44 46 48 47 42 42 45 43 43 44 43 40 37 30 26 23 22 21 19 14
5 7 12 4 18 31 12 5 28 34 29 35 39 8 5 31 11 6 8 16 15 26 25 29 30 28 44 43 45 46 46 43 42 39 37 34 31 28 25 25 24 23 20 17
7 8 2 20 41 20 11 5 52 41 29 28 9 10 22 20 14 18 13 8 12 20 24 29 34 38 41 42 43 38 37 37 36 35 33 31 29 28 28 29 29 25 21 23
7 6 5 46 6 9 13 36 35 37 32 27 24 25 24 21 24 24 23 23 21 21 29 35 36 39 39 38 34 35 36 31 30 31 33 32 32 33 34 35 35 32 32 30
3 8 9 19 22 21 21 23 33 32 37 38 43 44 38 34 31 30 30 30 32 26 22 29 32 32 33 35 35 34 33 33 32 34 34 34 36 38 40 40 42 40 39 34
4 4 3 25 23 40 34 35 29 38 48 55 56 54 52 45 39 38 33 28 25 29 32 28 29 31 33 33 33 35 32 27 28 29 30 33 36 38 40 43 46 45 45 40
9 9 3 25 39 45 39 42 40 43 48 51 53 61 61 61 55 46 36 28 24 24 21 24 28 26 26 30 32 29 28 27 27 27 30 32 34 37 37 38 41 40 43 46
5 3 4 14 26 33 43 48 49 49 55 54 53 55 59 61 61 54 45 33 28 26 20 19 15 20 22 25 24 24 21 19 20 22 24 28 33 33 33 34 36 35 29 31
8 15 2 23 11 28 29 35 39 39 42 51 50 45 49 55 60 55 50 44 41 34 28 24 13 6 13 20 21 21 21 18 15 15 15 20 26 32 33 41 38 38 36 32
21 12 6 26 19 27 21 28 31 33 41 46 43 39 43 46 48 55 58 46 38 37 28 27 23 12 5 15 22 21 14 9 7 8 12 20 25 31 34 43 45 43 44 40
25 17 12 17 21 22 22 14 23 43 41 42 41 36 38 42 47 50 47 43 35 31 30 24 21 21 11 8 15 14 10 4 2 6 13 18 26 36 42 44 44 44 54 49
24 19 21 21 25 29 26 24 16 30 36 41 34 31 32 32 34 38 41 42 41 41 38 32 27 23 17 7 7 2 6 7 8 11 13 14 21 29 41 49 51 50 61 57
26 33 30 27 26 27 28 26 28 21 20 29 26 21 20 23 27 33 38 39 35 31 32 33 34 27 22 9 2 6 14 21 23 21 23 25 24 34 42 48 54 48 62 62
18 17 18 18 21 21 21 21 21 23 12 17 15 13 16 22 27 28 28 29 22 23 30 36 36 28 23 21 16 11 9 13 16 23 26 29 41 38 38 46 58 50 65 65
41 32 25 25 22 18 21 20 19 14 11 15 11 13 19 20 20 22 25 28 29 26 31 34 34 33 27 27 27 19 14 18 21 22 27 30 39 47 48 49 50 56 64 72
45 42 43 45 44 42 40 33 27 25 21 17 19 21 18 19 20 21 26 29 31 31 29 27 28 32 36 33 29 24 18 15 17 29 35 35 35 42 48 47 50 63 65 72
47 50 54 55 52 49 47 45 45 45 39 28 26 26 27 27 24 23 25 27 26 23 22 27 31 30 31 35 35 31 27 22 18 15 21 36 36 43 46 50 48 59 68 67
34 39 43 47 51 54 54 54 51 46 42 44 44 38 37 43 37 30 28 31 27 26 27 26 25 26 27 27 30 33 29 27 24 17 18 19 35 41 43 45 48 47 53 58
21 22 25 28 33 39 43 49 52 53 48 44 42 44 43 44 48 45 40 38 35 30 28 29 24 22 21 21 22 24 26 26 26 20 17 20 24 36 50 51 42 43 42 45
14 17 15 10 13 18 27 35 41 44 47 48 51 51 45 43 37 39 39 36 34 34 35 36 32 25 21 20 19 17 17 20 25 25 19 23 29 37 37 59 58 52 48 53
12 15 13 9 7 10 11 15 20 27 33 36 38 41 45 49 51 51 51 46 44 41 37 36 34 34 33 30 26 24 20 17 16 23 26 26 23 28 35 47 55 59 45 39
11 15 19 20 20 9 6 9 10 14 20 24 30 36 38 41 43 44 46 49 53 45 42 41 37 34 32 31 32 30 29 25 18 14 18 25 21 19 25 36 50 61 54 46
14 16 17 18 18 20 20 14 13 9 5 13 16 21 27 30 32 39 46 49 51 53 52 46 40 39 36 33 30 29 30 27 27 24 21 20 24 17 15 33 44 46 54 52
Wind_Direction_500mb
256 260 248 248 257 244 179 183 169 247 222 264 268 291 301 317 231 206 206 205 212 221 224 228 228 230 230 231 231 231 230 229 229 227 230 231 235 238 245 255 267 273 275 277
287 277 223 262 242 239 232 216 257 251 278 267 294 280 292 310 280 214 212 212 214 220 226 229 227 227 227 228 227 228 228 222 219 222 225 226 229 235 243 252 260 264 268 272
259 351 331 277 234 242 355 51 353 198 253 341 325 322 308 279 280 247 228 219 214 218 225 225 228 225 227 227 224 223 219 214 214 214 216 219 224 230 233 242 253 256 258 242
244 354 205 162 44 26 115 62 13 323 316 313 296 292 299 287 244 280 268 224 212 218 228 229 231 227 228 221 220 213 209 208 211 211 210 211 213 216 223 236 241 241 233 226
196 192 298 306 28 349 9 329 11 334 326 327 326 264 26 13 278 293 278 256 219 210 205 210 220 225 221 212 207 204 200 204 205 200 200 200 203 207 217 226 230 233 226 233
326 184 200 84 324 313 277 271 354 342 338 338 329 153 333 354 334 285 256 236 190 169 174 184 184 185 202 195 190 197 194 199 189 192 198 202 203 207 216 224 227 226 211 225
255 267 302 354 322 308 134 259 317 332 337 359 32 359 331 348 23 27 28 102 148 173 168 165 166 166 181 180 187 191 189 191 201 204 208 208 214 221 227 228 226 219 204 212
188 235 207 350 16 77 307 317 324 339 5 30 33 45 49 33 31 43 66 89 111 145 153 163 158 161 175 177 175 191 198 204 214 220 224 229 233 235 234 231 226 216 201 208
162 138 99 36 69 19 4 347 351 2 30 50 47 47 48 48 36 39 55 71 83 101 140 154 153 168 182 176 184 199 218 227 228 233 237 239 241 242 238 230 222 216 202 210
115 26 35 50 35 31 27 23 38 45 46 48 50 46 47 47 40 45 48 60 74 94 101 121 151 168 175 182 197 208 210 214 220 226 232 236 239 239 238 229 220 217 207 211
71 27 171 359 20 24 31 54 62 53 47 42 42 45 44 40 39 42 45 52 62 79 82 101 122 143 170 182 191 196 201 207 218 226 233 235 234 236 237 236 236 232 219 218
88 55 315 301 10 18 43 55 58 53 49 46 40 42 42 42 38 38 43 53 62 64 71 81 121 149 167 178 182 180 186 204 224 237 241 237 229 228 227 226 228 227 236 246
349 337 218 358 58 25 33 46 59 61 50 42 38 41 39 36 34 35 38 48 53 55 54 55 65 118 164 177 180 185 192 201 221 231 227 226 228 223 222 211 209 219 218 224
26 54 49 31 5 16 24 30 47 60 57 45 36 40 37 34 28 28 30 33 42 48 57 54 49 52 91 173 182 184 198 218 236 254 249 236 229 228 223 221 210 209 209 207
39 36 23 19 25 31 25 23 18 39 44 38 35 42 36 29 29 24 26 27 32 38 47 49 54 52 53 114 156 168 176 193 288 269 255 253 245 239 231 218 220 219 209 207
22 32 29 25 19 28 28 37 17 14 25 23 26 35 35 33 26 30 26 22 24 27 30 38 50 53 44 63 113 167 279 291 285 284 280 271 260 251 240 231 223 225 217 217
24 13 13 13 8 17 33 32 32 27 357 12 21 27 35 32 25 25 31 31 34 36 33 31 38 32 25 20 269 243 276 282 268 264 276 263 267 259 252 245 233 233 226 225
43 29 28 12 5 10 28 39 34 38 11 7 15 39 41 35 34 29 22 17 25 34 38 37 33 25 21 14 23 5 328 293 278 268 277 268 263 253 261 252 236 242 231 222
49 49 44 42 43 41 40 37 42 36 39 45 40 34 47 41 30 20 9 1 357 12 23 22 21 17 14 16 18 6 343 332 311 293 281 280 262 258 253 246 252 247 240 223
56 55 56 58 58 57 59 57 50 50 43 35 29 35 27 22 22 14 6 4 8 6 359 356 360 6 12 12 6 355 349 339 321 302 285 282 278 271 261 261 262 249 241 229
56 57 57 56 56 56 53 53 55 50 47 45 37 31 24 20 15 4 352 350 350 348 349 342 346 350 353 358 358 352 346 338 323 313 319 282 279 282 272 258 263 257 243 233
54 47 48 53 56 59 56 53 51 49 48 50 49 47 39 36 28 18 10 0 354 346 348 352 344 340 339 337 338 343 346 341 328 317 278 280 273 270 265 265 263 259 252 240
47 39 30 33 42 48 52 52 46 43 43 48 49 50 43 41 37 29 23 17 14 6 355 351 351 338 325 319 319 322 324 334 343 327 311 278 256 268 265 263 262 263 253 247
28 12 15 12 16 28 40 47 50 50 47 48 48 48 45 47 44 38 37 36 27 24 25 15 3 345 335 331 324 316 307 305 313 332 322 291 285 255 262 258 252 252 237 235
59 57 40 12 349 359 17 33 44 47 47 47 47 46 43 42 40 33 29 28 28 31 31 20 15 10 9 4 355 346 334 321 316 313 320 325 281 299 273 258 256 249 242 220
72 36 31 25 15 330 346 355 0 24 36 37 36 39 36 34 33 33 32 30 27 26 29 29 19 13 13 13 11 2 358 351 331 326 327 321 325 309 247 223 234 244 217 246
357 352 351 356 20 32 29 10 353 333 355 29 24 18 21 22 24 23 23 22 23 23 22 19 20 18 16 14 9 0 0 353 353 353 340 324 338 331 291 246 226 223 238 246
Wind_Speed_850mb
12 19 7 9 10 7 10 9 11 11 15 22 19 15 19 26 13 28 34 40 47 47 51 56 62 66 68 67 62 61 60 58 55 45 48 43 40 36 31 31 29 28 26 23
9 13 14 10 15 15 10 4 11 10 13 11 33 28 26 32 8 29 41 42 39 47 55 59 59 58 60 62 56 54 54 49 44 46 47 43 40 36 34 28 26 24 21 16
9 7 10 7 9 4 1 13 6 8 10 24 16 22 20 18 17 27 36 44 53 53 55 53 52 54 54 52 51 51 49 45 45 45 43 42 39 37 30 26 22 20 15 14
7 9 8 9 11 9 22 17 17 15 22 24 28 50 27 10 5 13 13 27 41 51 62 56 51 54 56 49 46 44 45 44 43 45 43 41 38 34 28 25 21 18 16 16
6 6 7 2 11 10 9 3 23 25 30 45 38 11 10 16 10 16 23 18 19 35 39 41 44 46 48 47 42 42 45 43 43 44 43 40 37 30 26 23 22 21 19 14
5 7 12 4 18 31 12 5 28 34 29 35 39 8 5 31 11 6 8 16 15 26 25 29 30 28 44 43 45 46 46 43 42 39 37 34 31 28 25 25 24 23 20 17
7 8 2 20 41 20 11 5 52 41 29 28 9 10 22 20 14 18 13 8 12 20 24 29 34 38 41 42 43 38 37 37 36 35 33 31 29 28 28 29 29 25 21 23
7 6 5 46 6 9 13 36 35 37 32 27 24 25 24 21 24 24 23 23 21 21 29 35 36 39 39 38 34 35 36 31 30 31 33 32 32 33 34 35 35 32 32 30
3 8 9 19 22 21 21 23 33 32 37 38 43 44 38 34 31 30 30 30 32 26 22 29 32 32 33 35 35 34 33 33 32 34 34 34 36 38 40 40 42 40 39 34
4 4 3 25 23 40 34 35 29 38 48 55 56 54 52 45 39 38 33 28 25 29 32 28 29 31 33 33 33 35 32 27 28 29 30 33 36 38 40 43 46 45 45 40
9 9 3 25 39 45 39 42 40 43 48 51 53 61 61 61 55 46 36 28 24 24 21 24 28 26 26 30 32 29 28 27 27 27 30 32 34 37 37 38 41 40 43 46
5 3 4 14 26 33 43 48 49 49 55 54 53 55 59 61 61 54 45 33 28 26 20 19 15 20 22 25 24 24 21 19 20 22 24 28 33 33 33 34 36 35 29 31
8 15 2 23 11 28 29 35 39 39 42 51 50 45 49 55 60 55 50 44 41 34 28 24 13 6 13 20 21 21 21 18 15 15 15 20 26 32 33 41 38 38 36 32
21 12 6 26 19 27 21 28 31 33 41 46 43 39 43 46 48 55 58 46 38 37 28 27 23 12 5 15 22 21 14 9 7 8 12 20 25 31 34 43 45 43 44 40
25 17 12 17 21 22 22 14 23 43 41 42 41 36 38 42 47 50 47 43 35 31 30 24 21 21 11 8 15 14 10 4 2 6 13 18 26 36 42 44 44 44 54 49
24 19 21 21 25 29 26 24 16 30 36 41 34 31 32 32 34 38 41 42 41 41 38 32 27 23 17 7 7 2 6 7 8 11 13 14 21 29 41 49 51 50 61 57
26 33 30 27 26 27 28 26 28 21 20 29 26 21 20 23 27 33 38 39 35 31 32 33 34 27 22 9 2 6 14 21 23 21 23 25 24 34 42 48 54 48 62 62
18 17 18 18 21 21 21 21 21 23 12 17 15 13 16 22 27 28 28 29 22 23 30 36 36 28 23 21 16 11 9 13 16 23 26 29 41 38 38 46 58 50 65 65
41 32 25 25 22 18 21 20 19 14 11 15 11 13 19 20 20 22 25 28 29 26 31 34 34 33 27 27 27 19 14 18 21 22 27 30 39 47 48 49 50 56 64 72
45 42 43 45 44 42 40 33 27 25 21 17 19 21 18 19 20 21 26 29 31 31 29 27 28 32 36 33 29 24 18 15 17 29 35 35 35 42 48 47 50 63 65 72
47 50 54 55 52 49 47 45 45 45 39 28 26 26 27 27 24 23 25 27 26 23 22 27 31 30 31 35 35 31 27 22 18 15 21 36 36 43 46 50 48 59 68 67
34 39 43 47 51 54 54 54 51 46 42 44 44 38 37 43 37 30 28 31 27 26 27 26 25 26 27 27 30 33 29 27 24 17 18 19 35 41 43 45 48 47 53 58
21 22 25 28 33 39 43 49 52 53 48 44 42 44 43 44 48 45 40 38 35 30 28 29 24 22 21 21 22 24 26 26 26 20 17 20 24 36 50 51 42 43 42 45
14 17 15 10 13 18 27 35 41 44 47 48 51 51 45 43 37 39 39 36 34 34 35 36 32 25 21 20 19 17 17 20 25 25 19 23 29 37 37 59 58 52 48 53
12 15 13 9 7 10 11 15 20 27 33 36 38 41 45 49 51 51 51 46 44 41 37 36 34 34 33 30 26 24 20 17 16 23 26 26 23 28 35 47 55 59 45 39
11 15 19 20 20 9 6 9 10 14 20 24 30 36 38 41 43 44 46 49 53 45 42 41 37 34 32 31 32 30 29 25 18 14 18 25 21 19 25 36 50 61 54 46
14 16 17 18 18 20 20 14 13 9 5 13 16 21 27 30 32 39 46 49 51 53 52 46 40 39 36 33 30 29 30 27 27 24 21 20 24 17 15 33 44 46 54 52
Wind_Direction_850mb
256 260 248 248 257 244 179 183 169 247 222 264 268 291 301 317 231 206 206 205 212 221 224 228 228 230 230 231 231 231 230 229 229 227 230 231 235 238 245 255 267 273 275 277
287 277 223 262 242 239 232 216 257 251 278 267 294 280 292 310 280 214 212 212 214 220 226 229 227 227 227 228 227 228 228 222 219 222 225 226 229 235 243 252 260 264 268 272
259 351 331 277 234 242 355 51 353 198 253 341 325 322 308 279 280 247 228 219 214 218 225 225 228 225 227 227 224 223 219 214 214 214 216 219 224 230 233 242 253 256 258 242
244 354 205 162 44 26 115 62 13 323 316 313 296 292 299 287 244 280 268 224 212 218 228 229 231 227 228 221 220 213 209 208 211 211 210 211 213 216 223 236 241 241 233 226
196 192 298 306 28 349 9 329 11 334 326 327 326 264 26 13 278 293 278 256 219 210 205 210 220 225 221 212 207 204 200 204 205 200 200 200 203 207 217 226 230 233 226 233
326 184 200 84 324 313 277 271 354 342 338 338 329 153 333 354 334 285 256 236 190 169 174 184 184 185 202 195 190 197 194 199 189 192 198 202 203 207 216 224 227 226 211 225
255 267 302 354 322 308 134 259 317 332 337 359 32 359 331 348 23 27 28 102 148 173 168 165 166 166 181 180 187 191 189 191 201 204 208 208 214 221 227 228 226 219 204 212
188 235 207 350 16 77 307 317 324 339 5 30 33 45 49 33 31 43 66 89 111 145 153 163 158 161 175 177 175 191 198 204 214 220 224 229 233 235 234 231 226 216 201 208
162 138 99 36 69 19 4 347 351 2 30 50 47 47 48 48 36 39 55 71 83 101 140 154 153 168 182 176 184 199 218 227 228 233 237 239 241 242 238 230 222 216 202 210
115 26 35 50 35 31 27 23 38 45 46 48 50 46 47 47 40 45 48 60 74 94 101 121 151 168 175 182 197 208 210 214 220 226 232 236 239 239 238 229 220 217 207 211
71 27 171 359 20 24 31 54 62 53 47 42 42 45 44 40 39 42 45 52 62 79 82 101 122 143 170 182 191 196 201 207 218 226 233 235 234 236 237 236 236 232 219 218
88 55 315 301 10 18 43 55 58 53 49 46 40 42 42 42 38 38 43 53 62 64 71 81 121 149 167 178 182 180 186 204 224 237 241 237 229 228 227 226 228 227 236 246
349 337 218 358 58 25 33 46 59 61 50 42 38 41 39 36 34 35 38 48 53 55 54 55 65 118 164 177 180 185 192 201 221 231 227 226 228 223 222 211 209 219 218 224
26 54 49 31 5 16 24 30 47 60 57 45 36 40 37 34 28 28 30 33 42 48 57 54 49 52 91 173 182 184 198 218 236 254 249 236 229 228 223 221 210 209 209 207
39 36 23 19 25 31 25 23 18 39 44 38 35 42 36 29 29 24 26 27 32 38 47 49 54 52 53 114 156 168 176 193 288 269 255 253 245 239 231 218 220 219 209 207
22 32 29 25 19 28 28 37 17 14 25 23 26 35 35 33 26 30 26 22 24 27 30 38 50 53 44 63 113 167 279 291 285 284 280 271 260 251 240 231 223 225 217 217
24 13 13 13 8 17 33 32 32 27 357 12 21 27 35 32 25 25 31 31 34 36 33 31 38 32 25 20 269 243 276 282 268 264 276 263 267 259 252 245 233 233 226 225
43 29 28 12 5 10 28 39 34 38 11 7 15 39 41 35 34 29 22 17 25 34 38 37 33 25 21 14 23 5 328 293 278 268 277 268 263 253 261 252 236 242 231 222
49 49 44 42 43 41 40 37 42 36 39 45 40 34 47 41 30 20 9 1 357 12 23 22 21 17 14 16 18 6 343 332 311 293 281 280 262 258 253 246 252 247 240 223
56 55 56 58 58 57 59 57 50 50 43 35 29 35 27 22 22 14 6 4 8 6 359 356 360 6 12 12 6 355 349 339 321 302 285 282 278 271 261 261 262 249 241 229
56 57 57 56 56 56 53 53 55 50 47 45 37 31 24 20 15 4 352 350 350 348 349 342 346 350 353 358 358 352 346 338 323 313 319 282 279 282 272 258 263 257 243 233
54 47 48 53 56 59 56 53 51 49 48 50 49 47 39 36 28 18 10 0 354 346 348 352 344 340 339 337 338 343 346 341 328 317 278 280 273 270 265 265 263 259 252 240
47 39 30 33 42 48 52 52 46 43 43 48 49 50 43 41 37 29 23 17 14 6 355 351 351 338 325 319 319 322 324 334 343 327 311 278 256 268 265 263 262 263 253 247
28 12 15 12 16 28 40 47 50 50 47 48 48 48 45 47 44 38 37 36 27 24 25 15 3 345 335 331 324 316 307 305 313 332 322 291 285 255 262 258 252 252 237 235
59 57 40 12 349 359 17 33 44 47 47 47 47 46 43 42 40 33 29 28 28 31 31 20 15 10 9 4 355 346 334 321 316 313 320 325 281 299 273 258 256 249 242 220
72 36 31 25 15 330 346 355 0 24 36 37 36 39 36 34 33 33 32 30 27 26 29 29 19 13 13 13 11 2 358 351 331 326 327 321 325 309 247 223 234 244 217 246
357 352 351 356 20 32 29 10 353 333 355 29 24 18 21 22 24 23 23 22 23 23 22 19 20 18 16 14 9 0 0 353 353 353 340 324 338 331 291 246 226 223 238 246